Trenton, Ontario

2:14 AM EST on December 08, 2016 (GMT -0500)
Trenton

Weather History for CYTR - May, 2014

Change the Weather History Date:

Monday, May 5, 2014

  Actual Average Record
Temperature  
Mean Temperature 48 °F -  
Max Temperature 60 °F 59 °F 75 °F (1999)
Min Temperature 37 °F 42 °F 28 °F (2005)
Degree Days  
Heating Degree Days 16    
Moisture  
Dew Point 36 °F    
Average Humidity 64    
Maximum Humidity 87    
Minimum Humidity 22    
Precipitation  
Precipitation 0.00 in - - ()
Sea Level Pressure  
Sea Level Pressure 29.96 in    
Wind  
Wind Speed 7 mph ()    
Max Wind Speed 14 mph    
Max Gust Speed 20 mph    
Visibility 15.0 miles    
Events      
Averages and records for this station are not official NWS values.
T = Trace of Precipitation, MM = Missing Value Source: Averaged Metar Reports

Daily Weather History Graph

Daily Weather History Graph

Search for Another Location

Airport or City:

Trip Planner

Search our weather history database for the weather conditions in past years. The results will help you decide how hot, cold, wet, or windy it might be!

Date:

Astronomy

May. 05, 2014 Rise Set
Actual Time 5:55 AM EDT 8:18 PM EDT
Civil Twilight 5:23 AM EDT 8:50 PM EDT
Nautical Twilight 4:43 AM EDT 9:31 PM EDT
Astronomical Twilight 3:58 AM EDT 10:16 PM EDT
Moon 11:14 AM EDT (5/5) 1:00 AM EDT (5/5)
Length of Visible Light 15h 27m
Length of Day
14h 22m
Waxing Crescent, 36% of the Moon is Illuminated
May 5
Waxing Crescent
May 6
First Quarter
May 14
Full
May 21
Last Quarter
May 28
New

Hourly Weather History & Observations

Time (EDT) Temp. Windchill Dew Point Humidity Pressure Visibility Wind Dir Wind Speed Gust Speed Precip Events Conditions
12:00 AM 44.6 °F 39.7 °F 39.2 °F 81% 29.93 in 15.0 mi NW 9.2 mph - N/A   Clear
1:00 AM 42.8 °F 38.6 °F 37.4 °F 81% 29.95 in 15.0 mi WNW 6.9 mph - N/A   Clear
2:00 AM 42 °F - 38 °F 79% 29.96 in 15 mi NW 5.8 mph - -  
2:00 AM 41.0 °F 37.1 °F 37.4 °F 87% 29.96 in 15.0 mi NW 5.8 mph - N/A   Clear
3:00 AM 41.0 °F 38.0 °F 37.4 °F 87% 29.96 in 15.0 mi NW 4.6 mph - N/A   Clear
4:00 AM 41.0 °F 36.4 °F 37.4 °F 87% 29.97 in 15.0 mi NW 6.9 mph - N/A   Clear
5:00 AM 39.2 °F 34.2 °F 35.6 °F 87% 29.99 in 15.0 mi WNW 6.9 mph - N/A   Partly Cloudy
6:00 AM 37.4 °F 31.4 °F 33.8 °F 87% 30.01 in 15.0 mi WNW 8.1 mph - N/A   Partly Cloudy
7:00 AM 39.2 °F 35.9 °F 35.6 °F 87% 30.03 in 15.0 mi West 4.6 mph - N/A   Partly Cloudy
8:00 AM 43 °F - 35 °F 65% 30.03 in 15 mi WNW 11.5 mph - -   Scattered Clouds
8:00 AM 42.8 °F 37.0 °F 35.6 °F 76% 30.03 in 15.0 mi WNW 10.4 mph - N/A   Partly Cloudy
9:00 AM 46.4 °F 41.5 °F 32.0 °F 57% 30.04 in 15.0 mi WNW 10.4 mph - N/A   Partly Cloudy
10:00 AM 48.2 °F - 33.8 °F 58% 30.02 in 15.0 mi North 6.9 mph - N/A   Partly Cloudy
11:00 AM 51.8 °F - 32.0 °F 47% 30.01 in 15.0 mi NW 9.2 mph - N/A   Partly Cloudy
12:00 PM 55.4 °F - 28.4 °F 36% 30.00 in 15.0 mi NW 6.9 mph - N/A   Partly Cloudy
1:00 PM 57.2 °F - 26.6 °F 31% 29.99 in 15.0 mi NW 8.1 mph - N/A   Mostly Cloudy
2:00 PM 60 °F - 31 °F 22% 29.96 in 15 mi WNW 8.1 mph - -   Clear
2:00 PM 60.8 °F - 30.2 °F 31% 29.96 in 15.0 mi WNW 11.5 mph 17.3 mph N/A   Mostly Cloudy
3:00 PM 53.6 °F - 37.4 °F 54% 29.96 in 15.0 mi SSW 13.8 mph 19.6 mph N/A   Mostly Cloudy
4:00 PM 53.6 °F - 37.4 °F 54% 29.93 in 15.0 mi SSW 13.8 mph - N/A   Mostly Cloudy
5:00 PM 53.6 °F - 39.2 °F 58% 29.91 in 15.0 mi South 10.4 mph - N/A   Mostly Cloudy
6:00 PM 53.6 °F - 39.2 °F 58% 29.91 in 15.0 mi SSW 9.2 mph - N/A   Mostly Cloudy
7:00 PM 51.8 °F - 41.0 °F 67% 29.91 in 15.0 mi SSW 9.2 mph - N/A   Overcast
8:00 PM 51 °F - 40 °F 57% 29.91 in 15 mi SSW 8.1 mph - -   Partly Cloudy
8:00 PM 51.8 °F - 41.0 °F 67% 29.91 in 15.0 mi SSW 8.1 mph - N/A   Mostly Cloudy
9:00 PM 48.2 °F - 39.2 °F 71% 29.92 in 15.0 mi South 3.5 mph - N/A   Overcast
10:00 PM 51.8 °F - 35.6 °F 54% 29.92 in 15.0 mi WNW 9.2 mph - N/A   Scattered Clouds
11:00 PM 50.0 °F - 35.6 °F 58% 29.92 in 15.0 mi NW 8.1 mph - N/A   Partly Cloudy